Location: Bosmont
(49.7318°N, 3.8587°E)
Time: 04:38:39
(UTC+00:00)

Tiangong - Visible Passes

Search period start: 10 June 2023 00:00
Search period end: 20 June 2023 00:00
Orbit: 386 x 390 km, 41.5° (Epoch: 09 June)

Date Brightness Start Highest point End Pass type
(mag) Time Alt. Az. Time Alt. Az. Time Alt. Az.
10 Jun -0.5 01:47:53 19° S 01:47:53 19° S 01:50:11 10° SE visible
11 Jun -0.3 02:24:24 13° SW 02:25:38 16° SSW 02:27:40 10° SSE visible
12 Jun 0.2 01:28:53 12° SSE 01:28:53 12° SSE 01:29:24 10° SE visible
13 Jun 0.3 02:06:11 10° S 02:06:11 10° S 02:06:17 10° S visible
15 Jun 0.2 21:31:04 10° SSW 21:31:15 11° SSW 21:31:15 11° SSW visible
16 Jun 0.2 22:07:59 10° SW 22:08:23 12° SW 22:08:23 12° SW visible
17 Jun -0.4 21:09:26 10° SSW 21:11:33 17° S 21:12:40 14° SE visible
18 Jun -0.5 21:46:42 10° SW 21:48:51 19° S 21:48:51 19° S visible
19 Jun -0.5 20:47:55 10° SW 20:50:12 18° S 20:52:30 10° SE visible
19 Jun 0.4 22:24:31 10° SW 22:24:49 11° SW 22:24:49 11° SW visible
